• In Netherlands
  • List of Countries
  • For 7 days
  • Water Temperature
  • Satellite Maps
  • Weather Map
  • Weather Widgets
  • user-avatar
    Login

    Hourly Weather Berat

    Today, 24 September, Sunday

    Time Temperature Precipitation Wind Pressure Humidity
    00:00 +16°C° 0 mm 1 mps 748 mmHg 71%
    01:00 +16°C° 0 mm 1 mps 748 mmHg 70%
    02:00 +16°C° 0 mm 1 mps 747 mmHg 70%
    03:00 +16°C° 0 mm 1 mps 747 mmHg 69%
    04:00 +15°C° 0 mm 1 mps 747 mmHg 69%
    05:00 +16°C° 0 mm 1 mps 747 mmHg 66%
    06:00 +18°C° 0 mm 1 mps 747 mmHg 62%
    07:00 +20°C° 0 mm 1 mps 747 mmHg 56%
    08:00 +22°C° 0 mm 1 mps 747 mmHg 50%
    09:00 +23°C° 0 mm 1 mps 747 mmHg 43%
    10:00 +25°C° 0 mm 1 mps 747 mmHg 37%
    11:00 +26°C° 0 mm 2 mps 747 mmHg 36%
    12:00 +26°C° 0 mm 2 mps 746 mmHg 36%
    13:00 +27°C° 0 mm 2 mps 746 mmHg 38%
    14:00 +26°C° 0 mm 2 mps 746 mmHg 43%
    15:00 +25°C° 0 mm 2 mps 746 mmHg 47%
    16:00 +24°C° 0 mm 2 mps 746 mmHg 51%
    17:00 +23°C° 0.3 mm 2 mps 746 mmHg 59%
    18:00 +21°C° 0.3 mm 1 mps 746 mmHg 67%
    19:00 +20°C° 0.3 mm 1 mps 746 mmHg 75%
    20:00 +20°C° 0.5 mm 1 mps 746 mmHg 77%
    21:00 +19°C° 0.5 mm 1 mps 746 mmHg 78%
    22:00 +19°C° 0.5 mm 1 mps 746 mmHg 80%
    23:00 +19°C° 0.3 mm 1 mps 746 mmHg 80%

    Tomorrow, 25 September, Monday

    Time Temperature Precipitation Wind Pressure Humidity
    00:00 +18°C° 0.3 mm 2 mps 746 mmHg 80%
    01:00 +18°C° 0.3 mm 2 mps 746 mmHg 81%
    02:00 +18°C° 0.3 mm 2 mps 745 mmHg 81%
    03:00 +19°C° 0.3 mm 1 mps 745 mmHg 81%
    04:00 +19°C° 0.3 mm 1 mps 745 mmHg 82%
    05:00 +18°C° 0.6 mm 2 mps 745 mmHg 82%
    06:00 +18°C° 0.6 mm 2 mps 745 mmHg 82%
    07:00 +18°C° 0.6 mm 2 mps 745 mmHg 82%
    08:00 +18°C° 0.6 mm 2 mps 745 mmHg 79%
    09:00 +18°C° 0.6 mm 2 mps 745 mmHg 77%
    10:00 +18°C° 0.6 mm 2 mps 746 mmHg 75%
    11:00 +19°C° 0.3 mm 2 mps 746 mmHg 73%
    12:00 +19°C° 0.3 mm 2 mps 745 mmHg 70%
    13:00 +19°C° 0.3 mm 2 mps 745 mmHg 68%
    14:00 +20°C° 0.2 mm 2 mps 745 mmHg 67%
    15:00 +20°C° 0.2 mm 2 mps 745 mmHg 66%
    16:00 +20°C° 0.2 mm 2 mps 745 mmHg 65%
    17:00 +19°C° 0.3 mm 2 mps 745 mmHg 69%
    18:00 +18°C° 0.3 mm 2 mps 745 mmHg 74%
    19:00 +17°C° 0.3 mm 2 mps 746 mmHg 78%
    20:00 +16°C° 0.1 mm 2 mps 746 mmHg 79%
    21:00 +16°C° 0.1 mm 2 mps 746 mmHg 80%
    22:00 +16°C° 0.1 mm 2 mps 746 mmHg 81%
    23:00 +15°C° 0 mm 2 mps 746 mmHg 82%

    Day after tomorrow, 26 September, Tuesday

    Time Temperature Precipitation Wind Pressure Humidity
    00:00 +15°C° 0 mm 2 mps 746 mmHg 82%
    01:00 +15°C° 0 mm 2 mps 746 mmHg 83%
    02:00 +15°C° 0 mm 2 mps 745 mmHg 83%
    03:00 +15°C° 0 mm 2 mps 745 mmHg 83%
    04:00 +14°C° 0 mm 2 mps 745 mmHg 83%
    05:00 +15°C° 0 mm 2 mps 745 mmHg 80%
    06:00 +16°C° 0 mm 1 mps 746 mmHg 77%
    07:00 +18°C° 0 mm 1 mps 746 mmHg 74%
    08:00 +20°C° 0 mm 1 mps 746 mmHg 67%
    09:00 +22°C° 0 mm 1 mps 746 mmHg 59%
    10:00 +24°C° 0 mm 1 mps 746 mmHg 52%
    11:00 +24°C° 0.2 mm 1 mps 746 mmHg 50%
    12:00 +25°C° 0.2 mm 2 mps 746 mmHg 49%
    13:00 +25°C° 0.2 mm 2 mps 745 mmHg 47%
    14:00 +25°C° 0.3 mm 3 mps 745 mmHg 50%
    15:00 +24°C° 0.3 mm 3 mps 745 mmHg 52%
    16:00 +24°C° 0.3 mm 3 mps 745 mmHg 55%
    17:00 +21°C° 0.1 mm 2 mps 746 mmHg 61%
    18:00 +20°C° 0.1 mm 2 mps 746 mmHg 68%
    19:00 +18°C° 0.1 mm 2 mps 747 mmHg 74%
    20:00 +19°C° 0 mm 1 mps 747 mmHg 75%
    21:00 +18°C° 0 mm 1 mps 747 mmHg 76%
    22:00 +18°C° 0 mm 1 mps 747 mmHg 77%
    23:00 +18°C° 0 mm 1 mps 747 mmHg 77%

    27 September, Wednesday

    Time Temperature Precipitation Wind Pressure Humidity
    00:00 +18°C° 0 mm 1 mps 747 mmHg 77%
    01:00 +16°C° 0 mm 1 mps 747 mmHg 77%
    02:00 +16°C° 0 mm 1 mps 747 mmHg 77%
    03:00 +16°C° 0 mm 1 mps 747 mmHg 77%
    04:00 +16°C° 0 mm 1 mps 747 mmHg 78%
    05:00 +18°C° 0 mm 1 mps 747 mmHg 75%
    06:00 +18°C° 0 mm 1 mps 747 mmHg 73%
    07:00 +19°C° 0 mm 1 mps 748 mmHg 70%
    08:00 +21°C° 0 mm 1 mps 748 mmHg 63%
    09:00 +23°C° 0 mm 1 mps 748 mmHg 57%
    10:00 +25°C° 0 mm 1 mps 748 mmHg 50%
    11:00 +25°C° 0.1 mm 1 mps 748 mmHg 48%
    12:00 +26°C° 0.1 mm 2 mps 748 mmHg 47%
    13:00 +26°C° 0.1 mm 2 mps 748 mmHg 45%
    14:00 +25°C° 0.3 mm 2 mps 748 mmHg 51%
    15:00 +24°C° 0.3 mm 2 mps 748 mmHg 57%
    16:00 +23°C° 0.3 mm 2 mps 748 mmHg 64%
    17:00 +21°C° 0.4 mm 2 mps 748 mmHg 69%
    18:00 +21°C° 0.4 mm 1 mps 748 mmHg 74%
    19:00 +20°C° 0.4 mm 1 mps 748 mmHg 80%
    20:00 +20°C° 0.4 mm 1 mps 748 mmHg 80%
    21:00 +20°C° 0.4 mm 1 mps 749 mmHg 80%
    22:00 +20°C° 0.4 mm 1 mps 749 mmHg 80%
    23:00 +19°C° 0.2 mm 1 mps 749 mmHg 80%

    28 September, Thursday

    Time Temperature Precipitation Wind Pressure Humidity
    00:00 +19°C° 0.2 mm 1 mps 749 mmHg 80%
    01:00 +19°C° 0.2 mm 1 mps 749 mmHg 80%
    02:00 +18°C° 0.1 mm 2 mps 748 mmHg 80%
    03:00 +18°C° 0.1 mm 2 mps 748 mmHg 80%
    04:00 +18°C° 0.1 mm 2 mps 748 mmHg 80%
    05:00 +18°C° 0 mm 2 mps 748 mmHg 78%
    06:00 +18°C° 0 mm 2 mps 748 mmHg 77%
    07:00 +19°C° 0 mm 2 mps 748 mmHg 75%
    08:00 +20°C° 0 mm 2 mps 748 mmHg 69%
    09:00 +22°C° 0 mm 1 mps 748 mmHg 64%
    10:00 +23°C° 0 mm 1 mps 749 mmHg 58%
    11:00 +24°C° 0.2 mm 1 mps 748 mmHg 56%
    12:00 +24°C° 0.2 mm 2 mps 748 mmHg 55%
    13:00 +25°C° 0.2 mm 2 mps 748 mmHg 53%
    14:00 +24°C° 0.7 mm 2 mps 748 mmHg 57%
    15:00 +23°C° 0.7 mm 2 mps 748 mmHg 61%
    16:00 +23°C° 0.7 mm 2 mps 747 mmHg 65%
    17:00 +22°C° 0.9 mm 1 mps 748 mmHg 70%
    18:00 +21°C° 0.9 mm 1 mps 748 mmHg 75%
    19:00 +20°C° 0.9 mm 1 mps 748 mmHg 80%
    20:00 +20°C° 0.6 mm 1 mps 748 mmHg 81%
    21:00 +18°C° 0.6 mm 2 mps 748 mmHg 82%
    22:00 +18°C° 0.6 mm 2 mps 748 mmHg 84%
    23:00 +18°C° 0.4 mm 2 mps 748 mmHg 84%

    29 September, Friday

    Time Temperature Precipitation Wind Pressure Humidity
    00:00 +18°C° 0.4 mm 2 mps 748 mmHg 84%
    01:00 +17°C° 0.4 mm 2 mps 747 mmHg 84%
    02:00 +17°C° 0.3 mm 2 mps 747 mmHg 84%
    03:00 +17°C° 0.3 mm 2 mps 747 mmHg 84%
    04:00 +16°C° 0.3 mm 2 mps 747 mmHg 84%
    05:00 +17°C° 0.2 mm 2 mps 747 mmHg 82%
    06:00 +17°C° 0.2 mm 2 mps 747 mmHg 80%
    07:00 +17°C° 0.2 mm 2 mps 747 mmHg 79%
    08:00 +18°C° 0.1 mm 2 mps 747 mmHg 73%
    09:00 +19°C° 0.1 mm 2 mps 747 mmHg 67%
    10:00 +20°C° 0.1 mm 2 mps 747 mmHg 61%
    11:00 +21°C° 0 mm 2 mps 747 mmHg 59%
    12:00 +21°C° 0 mm 2 mps 746 mmHg 56%
    13:00 +23°C° 0 mm 2 mps 746 mmHg 53%
    14:00 +23°C° 0.1 mm 2 mps 746 mmHg 56%
    15:00 +22°C° 0.1 mm 1 mps 746 mmHg 58%
    16:00 +22°C° 0.1 mm 1 mps 746 mmHg 61%
    17:00 +21°C° 0.3 mm 1 mps 746 mmHg 65%
    18:00 +20°C° 0.3 mm 1 mps 746 mmHg 68%
    19:00 +19°C° 0.3 mm 1 mps 746 mmHg 72%
    20:00 +19°C° 0 mm 1 mps 746 mmHg 74%
    21:00 +18°C° 0 mm 1 mps 746 mmHg 75%
    22:00 +18°C° 0 mm 1 mps 746 mmHg 77%
    23:00 +16°C° 0 mm 2 mps 746 mmHg 77%
    Show more